DateTimeUTC,F1_A11,F1_S11,BsB_S11,BsG_S11,BsR_S11,BbsB_S11,BbsG_S11,BbsR_S11,BaB_A11,BaG_A11,BaR_A11,Tu_S11,T_S11,Uu_S11,U_S11,P_S11,T1_A11
2021-08-13T00:00:00Z,00040200,20000000,,,,,,,0000.13,0000.03,0000.09,18.2,25.0,07.6,05.0,0676.6,31.0
2021-08-13T00:01:00Z,00040200,20000000,,,,,,,0000.20,-000.09,-000.04,18.2,25.0,07.6,05.0,0676.6,31.0
2021-08-13T00:02:00Z,00040200,20000000,,,,,,,-000.57,0000.09,0000.03,18.3,25.0,07.5,05.0,0676.6,31.0
2021-08-13T00:03:00Z,00040200,60000000,,,,,,,0000.82,0000.50,0000.43,18.3,25.0,07.5,05.0,0676.6,31.0
2021-08-13T00:04:00Z,00040200,40000000,0003.91,0003.39,0002.09,-000.08,0000.61,-000.03,0000.54,0000.47,0000.62,18.7,25.0,07.4,05.0,0677.6,31.0
2021-08-13T00:05:00Z,00040200,00000000,0003.74,0002.96,0002.32,0000.78,0000.67,0000.17,0000.56,0000.66,0000.31,18.8,25.0,07.4,05.1,0677.6,31.0
2021-08-13T00:06:00Z,00040200,00000000,0004.01,0003.10,0002.26,0000.37,0000.63,0000.09,0000.70,0000.84,0000.46,18.7,25.0,07.3,05.0,0677.6,31.0
2021-08-13T00:07:00Z,00040200,00000000,0003.36,0003.25,0002.03,0000.42,0000.09,0000.20,0000.73,0000.36,0000.34,18.7,24.9,07.4,05.0,0677.6,31.0
2021-08-13T00:08:00Z,00040200,00000000,0004.32,0003.34,0002.18,0000.70,0000.33,0000.40,0000.37,0000.70,0000.49,18.7,24.9,07.5,05.1,0677.7,31.0
2021-08-13T00:09:00Z,00040200,00000000,0003.78,0003.14,0002.14,0000.61,0000.18,0000.01,0000.60,0000.19,0000.24,18.6,24.9,07.5,05.1,0677.6,31.0
2021-08-13T00:10:00Z,00040200,00000000,0003.71,0003.21,0001.95,-000.00,0000.17,0000.30,0001.01,0000.64,0000.64,18.6,24.9,07.4,05.0,0677.6,31.0
2021-08-13T00:11:00Z,00040200,00000000,0003.25,0003.01,0002.30,0000.85,0000.64,0000.35,0000.58,0000.61,0000.67,18.6,24.9,07.4,05.0,0677.6,31.0
2021-08-13T00:12:00Z,00040200,00000000,0004.21,0003.86,0002.12,0000.38,0000.39,0000.09,0000.54,0000.44,0000.32,18.6,24.8,07.3,05.0,0677.6,31.0
2021-08-13T00:13:00Z,00040200,00000000,0003.88,0003.61,0002.18,0000.31,0000.50,0000.11,0000.68,0000.82,0000.52,18.6,24.8,07.2,04.9,0677.6,31.0
2021-08-13T00:14:00Z,00040200,00000000,0004.25,0003.21,0002.69,0000.53,0000.36,0000.43,0000.81,0000.90,0000.61,18.7,24.9,07.1,04.8,0677.6,31.0
2021-08-13T00:15:00Z,00040200,00000000,0003.90,0003.21,0002.14,0000.47,0000.39,0000.28,0000.72,0000.50,0000.68,18.8,24.9,07.1,04.9,0677.6,31.0
2021-08-13T00:16:00Z,00040200,00000000,0004.32,0003.22,0002.39,0000.70,0000.11,0000.19,0001.04,0001.15,0000.57,18.9,25.0,07.3,05.0,0677.6,31.0
2021-08-13T00:17:00Z,00040200,00000000,0003.35,0003.22,0002.03,0000.25,0000.22,0000.39,0000.36,0000.42,0000.23,18.9,25.0,07.1,04.9,0677.6,31.0
2021-08-13T00:18:00Z,00040200,00000000,0004.02,0003.42,0002.61,-000.25,0000.48,0000.54,0000.45,0000.23,0000.72,18.9,25.0,06.9,04.8,0677.6,31.0
2021-08-13T00:19:00Z,00040200,00000000,0004.76,0003.66,0002.56,0000.32,0000.44,0000.42,0000.96,0001.00,0000.55,18.9,25.0,07.0,04.8,0677.6,31.0
2021-08-13T00:20:00Z,00040200,00000000,0005.28,0003.24,0002.57,0000.74,0000.31,-000.09,0000.76,0000.97,0000.31,18.8,25.0,07.0,04.8,0677.6,31.0
2021-08-13T00:21:00Z,00040200,00000000,0004.00,0003.32,0002.79,0000.83,0000.51,0000.32,0000.86,0000.77,0001.03,18.8,25.0,07.2,04.9,0677.6,31.0
2021-08-13T00:22:00Z,00040200,00000000,0004.65,0003.31,0002.58,0000.85,0000.67,0000.09,0000.62,-000.12,0000.23,18.7,24.9,07.1,04.9,0677.6,31.0
2021-08-13T00:23:00Z,00040200,00000000,0005.27,0003.84,0002.56,0001.04,0000.67,0000.49,0000.71,0001.35,0000.57,18.7,24.9,07.0,04.8,0677.6,31.0
2021-08-13T00:24:00Z,00040200,00000000,0005.06,0003.78,0003.01,0000.98,0000.78,0000.75,0001.69,0000.79,0000.84,18.7,24.9,07.1,04.9,0677.6,31.0
2021-08-13T00:25:00Z,00040200,00000000,0004.92,0003.78,0002.72,0000.49,0000.42,-000.04,0000.49,0000.75,0000.50,18.6,24.9,07.2,04.9,0677.7,31.0
2021-08-13T00:26:00Z,00040200,00000000,0004.70,0004.14,0002.74,0000.25,0000.17,0000.21,0000.90,0000.92,0000.84,18.6,24.9,07.3,04.9,0677.7,31.0
2021-08-13T00:27:00Z,00040200,00000000,0005.28,0003.76,0002.69,0000.62,0000.80,-000.02,0000.90,0001.05,0000.84,18.6,24.8,07.3,05.0,0677.6,31.0
2021-08-13T00:28:00Z,00040200,00000000,0004.81,0004.37,0002.72,0000.10,0000.47,0000.37,0001.17,0001.19,0000.73,18.6,24.8,07.3,05.0,0677.6,31.0
2021-08-13T00:29:00Z,00040200,00000000,0004.96,0004.30,0003.32,0000.62,0000.53,0000.52,0000.94,0000.36,0000.91,18.7,24.9,07.3,05.0,0677.6,31.0
2021-08-13T00:30:00Z,00040200,00000000,0004.88,0003.88,0003.31,0000.25,0000.60,0000.21,0000.62,0001.03,0000.63,18.8,24.9,07.2,04.9,0677.6,31.0
2021-08-13T00:31:00Z,00040200,00000000,0005.82,0004.45,0002.53,0000.19,0000.87,-000.16,0001.28,0001.17,0000.54,18.8,24.9,07.4,05.0,0677.5,31.0
2021-08-13T00:32:00Z,00040200,00000000,0005.45,0004.46,0003.19,0000.39,0001.05,-000.03,0001.07,0000.89,0001.28,18.8,24.9,07.4,05.0,0677.6,31.0
2021-08-13T00:33:00Z,00040200,00000000,0005.05,0004.71,0003.49,0000.38,0000.83,0000.71,0000.61,0000.55,-000.02,18.8,24.9,07.4,05.1,0677.6,31.0
2021-08-13T00:34:00Z,00040200,00000000,0005.23,0004.22,0003.26,0000.59,0000.69,0000.38,0000.87,0000.96,0001.06,18.7,24.9,07.4,05.1,0677.6,31.0
2021-08-13T00:35:00Z,00040200,00000000,0005.82,0003.81,0003.02,0000.39,0000.78,0000.47,0000.73,0000.82,0000.40,18.7,24.9,07.3,05.0,0677.6,31.0
2021-08-13T00:36:00Z,00040200,00000000,0005.89,0004.03,0003.10,0000.79,0000.65,0000.30,0001.22,0000.98,0001.50,18.7,24.9,07.4,05.1,0677.6,31.0
2021-08-13T00:37:00Z,00040200,00000000,0004.91,0004.24,0002.81,0000.55,0000.55,0000.35,0001.17,0001.35,0000.41,18.6,24.9,07.4,05.1,0677.6,31.0
2021-08-13T00:38:00Z,00040200,00000000,0005.41,0003.86,0003.04,0000.51,0000.45,0000.39,0001.08,0000.54,0000.70,18.6,24.8,07.4,05.1,0677.6,31.0
2021-08-13T00:39:00Z,00040200,00000000,0005.13,0004.10,0002.42,0000.50,0000.43,0000.33,0000.90,0001.11,0000.88,18.6,24.8,07.5,05.1,0677.7,31.0
2021-08-13T00:40:00Z,00040200,00000000,0005.81,0004.03,0002.60,0001.12,0000.68,0000.61,0000.87,0000.96,0000.52,18.5,24.8,07.5,05.1,0677.7,31.0
2021-08-13T00:41:00Z,00040200,00000000,0005.10,0003.71,0002.80,0000.59,0000.37,0000.16,0000.87,0000.41,0000.65,18.5,24.8,07.5,05.1,0677.6,31.0
2021-08-13T00:42:00Z,00040200,00000000,0004.67,0004.48,0002.86,0001.36,0000.35,0000.36,0000.86,0001.25,0000.91,18.5,24.8,07.6,05.2,0677.6,31.0
2021-08-13T00:43:00Z,00040200,00000000,0005.32,0004.18,0002.83,0000.58,0000.65,0000.11,0000.76,0000.70,0000.79,18.5,24.8,07.6,05.2,0677.6,31.0
2021-08-13T00:44:00Z,00040200,00000000,0005.00,0004.02,0002.97,0000.69,0000.50,0000.99,0001.71,0001.04,0000.94,18.6,24.8,07.5,05.2,0677.6,31.0
2021-08-13T00:45:00Z,00040200,00000000,0005.36,0004.54,0003.05,0000.95,0000.45,0000.61,0000.84,0001.08,0000.54,18.7,24.8,07.5,05.2,0677.6,31.0
2021-08-13T00:46:00Z,00040200,00000000,0005.66,0004.57,0002.89,0000.90,0000.89,0000.39,0000.82,0000.52,0000.61,18.8,24.9,07.5,05.2,0677.5,31.0
2021-08-13T00:47:00Z,00040200,00000000,0005.23,0004.50,0003.36,0000.19,0000.67,0000.50,0001.14,0001.15,0000.76,18.9,25.0,07.5,05.2,0677.6,31.0
2021-08-13T00:48:00Z,00040200,00000000,0006.06,0004.27,0003.20,0000.12,0000.36,0000.52,0000.86,0000.95,0000.73,18.9,25.0,07.4,05.1,0677.5,31.0
2021-08-13T00:49:00Z,00040200,00000000,0005.85,0004.49,0003.44,0000.42,0000.42,0000.49,0000.43,0000.46,0000.47,18.9,25.0,07.4,05.1,0677.6,31.0
2021-08-13T00:50:00Z,00040200,00000000,0006.54,0004.32,0003.29,0000.09,0000.71,0000.30,0001.09,0001.14,0000.57,18.9,25.0,07.4,05.1,0677.5,31.0
2021-08-13T00:51:00Z,00040200,00000000,0005.17,0004.69,0003.30,0000.78,0000.28,0000.68,0001.04,0000.75,0000.97,18.8,25.0,07.3,05.0,0677.5,31.0
2021-08-13T00:52:00Z,00040200,00000000,0005.81,0004.91,0003.43,0000.74,0000.65,0000.69,0001.39,0000.86,0000.58,18.8,24.9,07.4,05.0,0677.5,31.0
2021-08-13T00:53:00Z,00040200,00000000,0005.58,0004.90,0003.54,0001.16,0000.63,0000.57,0000.87,0001.24,0000.93,18.7,24.9,07.3,05.0,0677.6,31.0
2021-08-13T00:54:00Z,00040200,00000000,0005.87,0005.16,0003.99,0000.63,0000.81,0000.71,0001.10,0000.51,0000.80,18.7,24.9,07.4,05.1,0677.6,31.0
2021-08-13T00:55:00Z,00040200,00000000,0006.46,0004.94,0003.69,0001.23,0000.50,0000.71,0001.09,0001.63,0000.84,18.7,24.9,07.4,05.1,0677.6,31.0
2021-08-13T00:56:00Z,00040200,00000000,0005.90,0004.84,0003.46,0001.13,0000.80,0000.77,0001.19,0001.20,0000.84,18.6,24.9,07.5,05.1,0677.6,31.0
2021-08-13T00:57:00Z,00040200,40000000,,,,,,,0000.26,-000.17,0000.40,18.6,24.9,07.9,05.4,0677.7,31.0
2021-08-13T00:58:00Z,00040200,60000000,,,,,,,0000.05,0000.25,0000.26,18.4,25.0,07.6,05.0,0676.6,31.0
2021-08-13T00:59:00Z,00040200,20000000,,,,,,,-000.24,-000.09,-000.49,18.4,25.0,07.4,04.9,0676.6,31.0
